GW0881 Weather Reports


Display with metric or nautical units.
time (UTC)temp
F
wind
direction
speed
MPH
gust
MPH
rain 1hr
in
rain 24hr
in
rain mn
in
humidity
%
barometer
mb
20260505121646 37 321 5.0 5.0 0.00 0.00 0.00 60 1008.1
20260505121143 37 299 4.0 6.0 0.00 0.00 0.00 61 1008.0
20260505120639 37 310 4.0 6.0 0.00 0.00 0.00 63 1008.0
20260505120135 37 10 3.0 5.0 0.00 0.00 0.00 62 1007.9
20260505115629 36 306 2.0 2.0 0.00 0.00 0.00 63 1007.8
20260505115127 36 347 3.0 3.0 0.00 0.00 0.00 63 1007.8
20260505114624 36 346 3.0 5.0 0.00 0.00 0.00 64 1007.6
20260505114120 36 333 3.0 3.0 0.00 0.00 0.00 65 1007.6
20260505113617 36 337 3.0 3.0 0.00 0.00 0.00 65 1007.6
20260505113114 36 332 3.0 3.0 0.00 0.00 0.00 66 1007.6
20260505112610 36 331 3.0 3.0 0.00 0.00 0.00 68 1007.5
20260505112108 35 291 2.0 3.0 0.00 0.00 0.00 69 1007.6
20260505111602 35 330 2.0 2.0 0.00 0.00 0.00 70 1007.5
20260505111058 36 263 1.0 1.0 0.00 0.00 0.00 69 1007.3
20260505110555 36 274 2.0 2.0 0.00 0.00 0.00 69 1007.4
20260505102027 37 306 3.0 3.0 0.00 0.00 0.00 70 1007.2
20260505101526 37 288 2.0 2.0 0.00 0.00 0.00 70 1007.0
20260505101022 37 262 2.0 2.0 0.00 0.00 0.00 70 1006.8
20260505100519 37 271 2.0 2.0 0.00 0.00 0.00 70 1007.0
20260505100016 37 9 3.0 5.0 0.00 0.00 0.00 70 1006.8
20260505095512 37 319 2.0 3.0 0.00 0.00 0.00 70 1007.1
20260505095008 37 331 2.0 3.0 0.00 0.00 0.00 70 1006.9
20260505094505 37 255 2.0 2.0 0.00 0.00 0.00 69 1007.0
20260505094001 38 269 2.0 2.0 0.00 0.00 0.00 69 1007.1
20260505093457 38 271 2.0 2.0 0.00 0.00 0.00 69 1007.0
20260505092955 38 302 3.0 3.0 0.00 0.00 0.00 69 1006.7
20260505092452 38 272 3.0 3.0 0.00 0.00 0.00 68 1006.8
20260505091950 38 293 4.0 5.0 0.00 0.00 0.00 68 1006.9
20260505091447 38 252 2.0 2.0 0.00 0.00 0.00 68 1006.7
20260505090945 38 256 2.0 2.0 0.00 0.00 0.00 67 1006.8
20260505090443 38 301 3.0 3.0 0.00 0.00 0.00 67 1006.5
20260505085940 39 297 4.0 6.0 0.00 0.00 0.00 67 1006.5
20260505085438 39 277 3.0 3.0 0.00 0.00 0.00 66 1006.5
20260505084936 39 287 2.0 2.0 0.00 0.00 0.00 66 1006.4
20260505084434 39 285 3.0 3.0 0.00 0.00 0.00 66 1006.3
20260505083932 39 336 4.0 5.0 0.00 0.00 0.00 66 1006.4
20260505083429 39 304 2.0 2.0 0.00 0.00 0.00 66 1006.2
20260505082925 39 326 4.0 5.0 0.00 0.00 0.00 65 1006.0
20260505082421 39 290 3.0 3.0 0.00 0.00 0.00 65 1005.9
20260505081918 39 294 3.0 3.0 0.00 0.00 0.00 65 1005.9
20260505081415 39 313 2.0 2.0 0.00 0.00 0.00 64 1006.0
20260505080911 39 292 3.0 3.0 0.00 0.00 0.00 64 1005.8
20260505080407 39 314 3.0 3.0 0.00 0.00 0.00 63 1005.8
20260505075903 39 296 3.0 3.0 0.00 0.00 0.00 63 1005.8
20260505075400 39 272 2.0 2.0 0.00 0.00 0.00 63 1005.8
20260505074857 40 300 3.0 3.0 0.00 0.00 0.00 61 1005.8
20260505074354 40 309 2.0 2.0 0.00 0.00 0.00 61 1005.9
20260505073852 40 308 3.0 3.0 0.00 0.00 0.00 61 1006.0
20260505073349 40 332 3.0 5.0 0.00 0.00 0.00 60 1005.8
20260505072846 40 259 3.0 3.0 0.00 0.00 0.00 60 1005.8
20260505072342 40 299 3.0 3.0 0.00 0.00 0.00 60 1005.7
20260505071838 40 290 3.0 3.0 0.00 0.00 0.00 60 1005.8
20260505071335 40 305 4.0 5.0 0.00 0.00 0.00 60 1005.6
20260505070833 40 292 3.0 3.0 0.00 0.00 0.00 61 1005.7
20260505070329 40 283 3.0 3.0 0.00 0.00 0.00 60 1005.7
20260505065825 41 275 2.0 2.0 0.00 0.00 0.00 59 1005.7
20260505065321 41 262 2.0 2.0 0.00 0.00 0.00 58 1005.7
20260505064819 41 294 5.0 6.0 0.00 0.00 0.00 57 1005.9
20260505064316 41 242 2.0 2.0 0.00 0.00 0.00 58 1005.8
20260505063814 41 251 2.0 2.0 0.00 0.00 0.00 57 1005.6
20260505063310 41 275 2.0 2.0 0.00 0.00 0.00 57 1005.7
20260505062806 41 248 1.0 2.0 0.00 0.00 0.00 57 1005.7
20260505062304 42 286 3.0 3.0 0.00 0.00 0.00 56 1005.8
20260505061800 42 287 3.0 3.0 0.00 0.00 0.00 56 1005.8
20260505061259 42 271 3.0 3.0 0.00 0.00 0.00 57 1005.6
20260505060756 42 250 1.0 2.0 0.00 0.00 0.00 57 1005.6
20260505060253 41 261 2.0 2.0 0.00 0.00 0.00 58 1005.7
20260505055748 42 307 5.0 6.0 0.00 0.00 0.00 57 1005.5
20260505055244 42 269 2.0 2.0 0.00 0.00 0.00 57 1005.8
20260505054742 42 236 3.0 3.0 0.00 0.00 0.00 57 1005.6
20260505054239 42 274 4.0 5.0 0.00 0.00 0.00 56 1005.6
20260505053738 42 274 2.0 2.0 0.00 0.00 0.00 56 1005.5
20260505053234 42 318 3.0 3.0 0.00 0.00 0.00 56 1005.5
20260505052731 42 312 3.0 3.0 0.00 0.00 0.00 56 1005.5
20260505052228 42 256 2.0 2.0 0.00 0.00 0.00 57 1005.4
20260505051725 42 262 1.0 1.0 0.00 0.00 0.00 56 1005.5
20260505051223 42 282 2.0 2.0 0.00 0.00 0.00 55 1005.5
20260505050721 43 242 1.0 1.0 0.00 0.00 0.00 55 1005.2
20260505050219 43 258 1.0 2.0 0.00 0.00 0.00 54 1005.1
20260505041642 43 272 2.0 2.0 0.00 0.00 0.00 55 1005.1
20260505041140 43 309 3.0 3.0 0.00 0.00 0.00 55 1005.1
20260505040637 43 282 3.0 3.0 0.00 0.00 0.00 55 1005.0
20260505040134 43 266 2.0 2.0 0.00 0.00 0.00 55 1004.9
20260505035630 43 273 2.0 2.0 0.00 0.00 0.00 55 1005.0
20260505035126 44 275 2.0 2.0 0.00 0.00 0.00 55 1005.0
20260505034623 44 274 2.0 2.0 0.00 0.00 0.00 54 1005.0
20260505034120 44 263 2.0 2.0 0.00 0.00 0.00 53 1004.9
20260505033617 44 253 2.0 2.0 0.00 0.00 0.00 53 1005.0
20260505033116 44 309 2.0 3.0 0.00 0.00 0.00 52 1004.9
20260505032613 44 296 3.0 3.0 0.00 0.00 0.00 51 1004.8
20260505032109 44 265 2.0 2.0 0.00 0.00 0.00 51 1004.8
20260505031606 45 291 3.0 3.0 0.00 0.00 0.00 51 1004.8
20260505031102 45 288 2.0 2.0 0.00 0.00 0.00 51 1004.7
20260505030559 45 257 2.0 2.0 0.00 0.00 0.00 51 1004.8
20260505030050 45 284 2.0 2.0 0.00 0.00 0.00 50 1004.7
20260505025546 45 270 2.0 2.0 0.00 0.00 0.00 49 1004.6
20260505025045 45 240 3.0 5.0 0.00 0.00 0.00 48 1004.7
20260505024542 46 254 2.0 2.0 0.00 0.00 0.00 49 1004.6
20260505024039 45 282 2.0 2.0 0.00 0.00 0.00 49 1004.5
20260505023536 46 290 2.0 2.0 0.00 0.00 0.00 48 1004.4
20260505023033 46 310 3.0 5.0 0.00 0.00 0.00 48 1004.5
20260505022531 46 287 2.0 3.0 0.00 0.00 0.00 47 1004.5
20260505022028 46 278 3.0 3.0 0.00 0.00 0.00 47 1004.4
20260505021524 46 244 2.0 2.0 0.00 0.00 0.00 48 1004.3
20260505021020 46 264 3.0 3.0 0.00 0.00 0.00 47 1004.3
20260505020515 46 294 3.0 3.0 0.00 0.00 0.00 47 1004.2
20260505020013 46 249 2.0 2.0 0.00 0.00 0.00 47 1004.2
20260505015509 46 254 2.0 2.0 0.00 0.00 0.00 47 1003.9
20260505015006 46 305 4.0 5.0 0.00 0.00 0.00 46 1004.0
20260505014503 46 289 1.0 2.0 0.00 0.00 0.00 47 1003.8
20260505014001 46 269 3.0 3.0 0.00 0.00 0.00 46 1003.8
20260505013457 46 280 2.0 2.0 0.00 0.00 0.00 47 1003.8
20260505012954 46 248 1.0 1.0 0.00 0.00 0.00 46 1003.8
20260505012453 46 302 2.0 2.0 0.00 0.00 0.00 46 1003.7
20260505011949 47 262 4.0 5.0 0.00 0.00 0.00 46 1003.6
20260505011445 47 338 3.0 3.0 0.00 0.00 0.00 44 1003.4
20260505010942 47 313 4.0 5.0 0.00 0.00 0.00 44 1003.5
20260505010438 48 223 4.0 5.0 0.00 0.00 0.00 44 1003.3
20260505005934 48 290 5.0 7.0 0.00 0.00 0.00 43 1003.4
20260505005431 48 318 6.0 7.0 0.00 0.00 0.00 43 1003.4
20260505004929 48 295 5.0 7.0 0.00 0.00 0.00 43 1003.5
20260505004425 48 291 6.0 7.0 0.00 0.00 0.00 43 1003.4
20260505003922 48 333 8.0 10.0 0.00 0.00 0.00 43 1003.4
20260505003419 48 279 9.0 11.0 0.00 0.00 0.00 45 1003.4
20260505002915 48 321 5.0 7.0 0.00 0.00 0.00 45 1003.3
20260505002412 48 359 9.0 11.0 0.00 0.00 0.00 45 1003.4
20260505001910 49 339 7.0 8.0 0.00 0.00 0.00 46 1003.3
20260505001408 49 337 10.0 16.0 0.00 0.00 0.00 45 1003.1
20260505000905 49 268 7.0 9.0 0.00 0.00 0.00 45 1002.9
20260505000403 50 349 8.0 10.0 0.00 0.00 0.00 44 1003.0
20260504235859 50 320 5.0 6.0 0.00 0.00 0.00 44 1002.8
20260504235356 50 326 7.0 8.0 0.00 0.00 0.00 44 1002.8
20260504234852 51 327 6.0 7.0 0.00 0.00 0.00 43 1002.6
20260504234350 51 327 10.0 16.0 0.00 0.00 0.00 42 1002.4
20260504233846 51 310 7.0 8.0 0.00 0.00 0.00 43 1002.4
20260504233342 51 26 12.0 16.0 0.00 0.00 0.00 43 1002.3
20260504232839 51 311 5.0 6.0 0.00 0.00 0.00 43 1002.1
20260504232336 51 348 7.0 8.0 0.00 0.00 0.00 42 1002.1
20260504231833 52 290 7.0 8.0 0.00 0.00 0.00 42 1002.2
20260504231329 52 342 5.0 6.0 0.00 0.00 0.00 40 1001.8
20260504230825 51 21 6.0 8.0 0.00 0.00 0.00 42 1001.9
20260504230323 51 335 5.0 6.0 0.00 0.00 0.00 43 1001.9
20260504225822 52 4 6.0 7.0 0.00 0.00 0.00 43 1001.9
20260504225318 52 352 6.0 7.0 0.00 0.00 0.00 42 1001.6
20260504224816 53 350 6.0 7.0 0.00 0.00 0.00 41 1001.6
20260504224312 52 316 4.0 5.0 0.00 0.00 0.00 42 1001.8
20260504223809 53 298 3.0 5.0 0.00 0.00 0.00 42 1001.5
20260504223304 52 313 7.0 8.0 0.00 0.00 0.00 42 1001.5
20260504222801 52 324 8.0 9.0 0.00 0.00 0.00 42 1001.4
20260504222258 53 316 6.0 10.0 0.00 0.00 0.00 43 1001.4
20260504221756 53 9 11.0 14.0 0.00 0.00 0.00 42 1001.2
20260504221253 52 319 9.0 13.0 0.00 0.00 0.00 43 1001.3
20260504220749 52 283 9.0 11.0 0.00 0.00 0.00 44 1001.4
20260504220246 52 331 6.0 7.0 0.00 0.00 0.00 44 1001.2
20260504215744 52 332 7.0 9.0 0.00 0.00 0.00 45 1001.2
20260504215240 53 341 6.0 8.0 0.00 0.00 0.00 45 1000.9
20260504214736 53 22 9.0 13.0 0.00 0.00 0.00 44 1001.1
20260504214233 53 331 10.0 11.0 0.00 0.00 0.00 44 1000.9
20260504213730 53 336 7.0 8.0 0.00 0.00 0.00 44 1000.6
20260504213226 53 303 7.0 8.0 0.00 0.00 0.00 45 1000.7
20260504212723 54 0 13.0 16.0 0.00 0.00 0.00 44 1000.7
20260504212220 53 16 12.0 21.0 0.00 0.00 0.00 44 1000.5
20260504211717 54 347 8.0 11.0 0.00 0.00 0.00 43 1000.7
20260504211213 55 332 6.0 7.0 0.00 0.00 0.00 43 1000.4
20260504210711 55 312 9.0 10.0 0.00 0.00 0.00 42 1000.5
20260504210208 54 344 5.0 7.0 0.00 0.00 0.00 42 1000.6
20260504205705 55 311 8.0 9.0 0.00 0.00 0.00 41 1000.3
20260504205202 56 277 8.0 10.0 0.00 0.00 0.00 42 1000.2
20260504204700 57 279 11.0 15.0 0.00 0.00 0.00 40 1000.2
20260504204159 55 275 6.0 7.0 0.00 0.00 0.00 43 1000.0
20260504203657 55 281 9.0 9.0 0.00 0.00 0.00 43 1000.1
20260504203154 56 6 15.0 18.0 0.00 0.00 0.00 42 999.9
20260504202649 57 357 7.0 9.0 0.00 0.00 0.00 41 1000.0
20260504202146 57 262 5.0 6.0 0.00 0.00 0.00 40 999.8
20260504201643 57 339 9.0 10.0 0.00 0.00 0.00 42 999.9
20260504201141 56 316 9.0 10.0 0.00 0.00 0.00 42 999.8
20260504200638 56 327 11.0 14.0 0.00 0.00 0.00 42 1000.0
20260504200134 57 291 8.0 9.0 0.00 0.00 0.00 42 999.7
20260504195630 57 307 10.0 13.0 0.00 0.00 0.00 40 999.6
20260504195126 57 322 7.0 9.0 0.00 0.00 0.00 41 999.5
20260504194623 56 359 11.0 15.0 0.00 0.00 0.00 43 999.6
20260504194119 57 302 9.0 11.0 0.00 0.00 0.00 42 999.5
20260504193616 57 336 10.0 13.0 0.00 0.00 0.00 41 999.4
20260504193114 57 359 12.0 14.0 0.00 0.00 0.00 42 999.2
20260504192612 57 272 8.0 9.0 0.00 0.00 0.00 42 999.4
20260504192110 57 312 9.0 10.0 0.00 0.00 0.00 44 999.1
20260504191608 57 280 6.0 7.0 0.00 0.00 0.00 45 999.2
20260504191104 59 339 8.0 9.0 0.00 0.00 0.00 44 999.1
20260504190600 57 339 6.0 7.0 0.00 0.00 0.00 45 998.8
20260504190056 57 12 10.0 13.0 0.00 0.00 0.00 44 998.7
20260504185553 59 16 13.0 24.0 0.00 0.00 0.00 44 998.7
20260504185050 58 316 7.0 7.0 0.00 0.00 0.00 43 998.6
20260504184545 58 314 8.0 10.0 0.00 0.00 0.00 43 998.5
20260504184041 59 16 7.0 10.0 0.00 0.00 0.00 44 998.3
20260504183538 57 327 5.0 7.0 0.00 0.00 0.00 46 998.5
20260504183036 57 296 7.0 10.0 0.00 0.00 0.00 46 998.4
20260504182533 57 20 4.0 6.0 0.00 0.00 0.00 46 998.4
20260504182030 58 292 9.0 10.0 0.00 0.00 0.00 45 998.1
20260504181527 59 324 5.0 7.0 0.00 0.00 0.00 44 998.2
20260504181026 59 319 7.0 8.0 0.00 0.00 0.00 44 998.1
20260504180524 59 333 7.0 9.0 0.00 0.00 0.00 44 997.9
20260504180023 59 252 6.0 8.0 0.00 0.00 0.00 46 998.0
20260504175519 59 0 5.0 6.0 0.00 0.00 0.00 43 997.9
20260504175016 59 278 10.0 13.0 0.00 0.00 0.00 43 997.9
20260504174514 59 273 7.0 9.0 0.00 0.00 0.00 43 997.6
20260504174011 59 312 5.0 7.0 0.00 0.00 0.00 41 997.5
20260504173508 58 329 9.0 13.0 0.00 0.00 0.00 42 997.6
20260504173005 59 259 5.0 6.0 0.00 0.00 0.00 42 997.8
20260504172501 58 326 6.0 8.0 0.00 0.00 0.00 41 997.7
20260504171957 59 303 9.0 10.0 0.00 0.00 0.00 41 997.9
20260504171455 59 318 11.0 13.0 0.00 0.00 0.00 40 997.9
20260504170951 59 288 5.0 8.0 0.00 0.00 0.00 43 997.4
20260504170447 58 271 6.0 7.0 0.00 0.00 0.00 43 997.8
20260504160408 58 285 6.0 7.0 0.00 0.00 0.00 50 997.2
20260504150831 58 227 7.0 8.0 0.00 0.00 0.00 46 996.8
20260504150328 58 308 5.0 7.0 0.00 0.00 0.00 49 996.7
20260504141258 57 294 5.0 8.0 0.00 0.00 0.00 49 996.7
20260504140755 56 271 5.0 7.0 0.00 0.00 0.00 50 996.5
20260504140250 56 293 7.0 7.0 0.00 0.00 0.00 50 996.6
20260504130719 57 316 4.0 5.0 0.00 0.00 0.00 51 995.9
20260504130215 57 248 6.0 8.0 0.00 0.00 0.00 52 995.9